Regional Weather Roundup
Issued by NWS Upton, NY

Home | Current Version | Previous Version | Text Only | Print | Product List | Glossary On
Versions: 1 2 3 4 5 6 7 8 9 10 11 12 13 14 15 16 17 18 19 20 21 22 23 24 25 26 27 28 29 30 31 32 33 34 35 36 37 38 39 40 41 42 43 44 45 46 47 48 49 50
000
ASUS41 KOKX 280605
RWROKX

REGIONAL WEATHER ROUNDUP
NATIONAL WEATHER SERVICE NEW YORK NY
200 AM EDT THU AUG 28 2014

NOTE: "FAIR" INDICATES FEW OR NO CLOUDS BELOW 12,000 FEET WITH NO
SIGNIFICANT WEATHER AND/OR OBSTRUCTIONS TO VISIBILITY.

NYZ071-072-176-178-NJZ106-104-280700-
NEW YORK CITY METRO AREA


CITY           SKY/WX    TMP DP  RH WIND       PRES   REMARKS
CENTRAL PARK   FAIR      76  67  73 MISG      29.88F
LAGUARDIA APRT FAIR      76  69  79 NE6       29.84F
KENNEDY INTL   MOCLDY    76  66  71 N10       29.85F
NEWARK/LIBERTY FAIR      78  69  73 N10       29.86F
BRNX BOT. GARD   N/A     73  70  88 N2        29.88S
TETERBORO      LGT RAIN  75  70  84 CALM      29.85F
$$

NYZ177-179-078>081-280700-
LONG ISLAND NEW YORK

CITY           SKY/WX    TMP DP  RH WIND       PRES   REMARKS
FARMINGDALE    FAIR      73  67  81 N6        29.85F
ISLIP          FAIR      71  67  87 N3        29.83F
SHIRLEY        FAIR      69  66  90 NW6       29.85F
WESTHAMPTON    FAIR      65  62  90 CALM      29.86F
MONTAUK POINT    N/A     73  66  78 SW5       29.85F
$$

NYZ052-065-067-280700-
HUDSON VALLEY

CITY           SKY/WX    TMP DP  RH WIND       PRES   REMARKS
WHITE PLAINS   FAIR      72  67  84 N8        29.86F
NEWBURGH       MOCLDY    72  70  94 CALM      29.91F
MONTGOMERY     FAIR      72  56  57 NW10      29.89F
POUGHKEEPSIE   FAIR      69  65  86 NE5       29.88F
ALBANY         FAIR      64  57  78 W5        29.92F
$$

NJZ001-105-106-008-010-013-015-019>022-104-280700-
NEW JERSEY

CITY           SKY/WX    TMP DP  RH WIND       PRES   REMARKS
NEWARK/LIBERTY FAIR      78  69  73 N10       29.86F
TETERBORO      LGT RAIN  75  70  84 CALM      29.85F
CALDWELL       FAIR      74  68  81 VRB5      29.87F
MORRISTOWN     CLOUDY    77  68  73 N5        29.88S
SOMERVILLE     FAIR      76  67  73 N8        29.86F
LINDEN         FAIR      82  71  68 N6        29.87F
SUSSEX         FAIR      72  64  76 W3        29.92F
ANDOVER          N/A     72  63  73 N7        29.92S
TRENTON        FAIR      75  67  76 N8        29.86F
MILLVILLE      MOCLDY    71  68  90 W7        29.86F
ATLANTIC CITY  FAIR      72  68  87 MISG      29.85F
WRIGHTSTOWN    FAIR      70  67  88 NW2       29.83F
TOMS RIVER     FAIR      72  64  78 W3        29.85F
BELMAR         FAIR      72  63  73 W5        29.85F
$$

PAZ047>061-062-071-280700-
EASTERN PENNSYLVANIA

CITY           SKY/WX    TMP DP  RH WIND       PRES   REMARKS
PHILADELPHIA   FAIR      78  67  68 NW5       29.86F
ALLENTOWN      FAIR      74  64  71 NE8       29.91F
SCRANTON       FAIR      68  56  65 N9        29.97F
$$

CTZ002-004>006-009-010-012-RIZ004-006-007-MAZ004-011-015-280700-
SOUTHERN NEW ENGLAND
 IN CT

CITY           SKY/WX    TMP DP  RH WIND       PRES   REMARKS
BRADLEY INTL   MOCLDY    68  58  70 NW9       29.84F
HARTFORD       FAIR      71  58  63 NW9       29.85F
DANBURY        MOCLDY    68  66  93 CALM      29.90F
WTRBRY/OXFORD  FAIR      66  61  82 NW5       29.91F
BRIDGEPORT     FAIR      72  68  87 N5        29.86F
MERIDEN        FAIR      70  63  78 NW5       29.86F
NEW HAVEN      FAIR      73  68  84 N3        29.86F
CHESTER        FAIR      72  64  78 NW5       29.87F
GROTON         FAIR      71  67  87 W7        29.83F
WILLIMANTIC    FAIR      69  66  90 CALM      29.85F

 IN RI

CITY           SKY/WX    TMP DP  RH WIND       PRES   REMARKS
PROVIDENCE     FAIR      72  64  76 W5        29.83F
BLOCK ISLAND   MOCLDY    70  64  83 SW10      29.84F
WESTERLY       FAIR      70  66  87 CALM      29.84F

 IN MA

CITY           SKY/WX    TMP DP  RH WIND       PRES   REMARKS
BOSTON         FAIR      74  69  85 W8        29.81F
WORCESTER      FAIR      67  64  90 NW12      29.87F
WESTFIELD      FAIR      67  59  75 N5        29.85F
PROVINCETOWN   MOCLDY    70  63  78 SW9       29.81F
NANTUCKET      FOG       67  66  97 SW5       29.83F VSB 1/4
$$

ANZ330-335-338-340-345-350-353-355-280700-
COASTAL MARINE OBSERVATIONS


STATION/POSITION TIME  SKY/WX   TEMP    WIND        PRES    VSBY  WAVE
                                AIR SEA DIR/SP/G                  HT/PER
                 (UTC)          (F)     (DEG/KT/KT) (MB)    (MI)  (FT/S)
NY HARB ENTRANCE NOT AVBL
4S FIRE IS       NOT AVBL
23SW MTP         0600                                 N/A           5/14
HUDSON CANYON    0600            72 74  250/  6/  6 1010.5          7/15
EXECUTION ROCKS  0600            75 74  360/  4/  6   N/A
WESTERN LI SOUND 0600            75      10/  8/ 10   N/A           0
CENTRAL LI SOUND 0500            74 74  270/  6/  8   N/A           1
EASTERN LI SOUND 0500            70 69  300/  4/  6   N/A
ROBBINS REEF     0600            77      10/  8/ 10   N/A
$$


>>>>>>>>>>>>>>>>>>>>>>>>>>>> KEY <<<<<<<<<<<<<<<<<<<<<<<<<<<
>                                                          <
>     SKY/WX - SKY CONDITION/PRESENT WEATHER               <
>     TMP    - TEMPERATURE IN FAHRENHEIT                   <
>     DP     - DEWPOINT IN FAHRENHEIT                      <
>     RH     - RELATIVE HUMIDITY IN PERCENT                <
>     WIND   - DIRECTION AND SPEED IN MPH                  <
>     PRES   - MEAN SEA LEVEL PRESSURE IN INCHES OF HG     <
>     WCI    - WIND CHILL INDEX                            <
>     VSB    - VISIBILITY IN MILES                         <
>     HX     - HEAT INDEX                                  <
>     TC     - TEMPERATURE IN CELSIUS                      <
>     VRB    - VARIABLE WIND DIRECTION                     <
>                                                          <
>>>>>>>>>>>>>>>>>>>>>>>>>>>> KEY <<<<<<<<<<<<<<<<<<<<<<<<<<<




USA.gov is the U.S. government's official web portal to all federal, state and local government web resources and services.